User: anonymous   Login
Location: Seattle
(47.6064°N, 122.3308°W)
Time: 12:53:37
(UTC-07:00)
Language:

SR - Orbit

View from above orbital plane
View from above orbital plane
View from above satellite
View from above satellite

Ground track
Ground track

The orbit data is extracted from the following two-line orbital elements,

1 00046U 60007B   21169.54291139  .00000016  00000-0  26219-4 0  9997
2 00046  66.6891 137.2423 0215042 219.8780 138.6362 14.49408425192168
Epoch (UTC): 18 June 2021 13:01:47
Eccentricity: 0.0215042
inclination: 66.6891°
perigee height: 575 km
apogee height: 880 km
right ascension of ascending node: 137.2423°
argument of perigee: 219.8780°
revolutions per day: 14.49408425
mean anomaly at epoch: 138.6362°
orbit number at epoch: 19216

The dashed part of the orbit path shows where the satellite is in the earth's shadow,  

DLR